Date,TemperatureHighF,TemperatureAvgF,TemperatureLowF,DewpointHighF,DewpointAvgF,DewpointLowF,HumidityHigh,HumidityAvg,HumidityLow,PressureMaxIn,PressureMinIn,WindSpeedMaxMPH,WindSpeedAvgMPH,GustSpeedMaxMPH,PrecipitationSumIn
2012-9-20,77.0,65.1,56.8,53.4,50.2,47.8,77,59,40,29.92,29.88,17,8,21,0.00
2012-9-21,86.2,68.1,48.0,53.8,48.6,38.6,94,53,20,29.92,29.72,15,6,17,0.00
2012-9-22,91.8,64.6,44.2,55.0,46.9,42.0,95,58,21,29.78,29.70,20,4,20,0.00
2012-9-23,83.1,58.8,45.9,55.9,48.2,43.3,92,72,27,29.81,29.74,20,5,21,0.00
2012-9-24,85.6,65.7,54.0,56.6,53.0,47.6,93,69,31,29.82,29.72,15,6,15,0.00
2012-9-25,77.5,57.5,46.8,56.8,51.3,45.1,95,82,45,29.76,29.69,24,8,24,0.00
2012-9-26,76.8,63.1,51.1,55.6,52.9,48.2,91,72,46,29.74,29.67,20,7,20,0.00
2012-9-27,88.3,57.3,46.8,58.3,50.7,45.1,96,81,36,29.78,29.66,10,2,10,0.00
2012-9-28,64.0,56.4,51.1,54.6,52.4,48.8,95,86,71,29.82,29.72,24,8,24,0.00
2012-9-29,87.3,67.2,53.1,58.1,54.1,49.0,94,66,30,29.89,29.80,11,3,11,0.00
2012-9-30,102.4,72.7,46.6,59.8,53.2,42.2,97,56,13,29.91,29.79,8,3,8,0.00
2012-10-1,106.9,78.9,50.7,52.9,41.5,31.2,76,37,10,29.85,29.73,8,2,8,0.00
2012-10-2,105.4,85.8,55.0,53.5,39.4,31.8,61,26,10,29.74,29.64,8,4,8,0.00
2012-10-3,81.4,60.8,47.4,51.3,46.2,39.1,90,62,28,29.94,29.74,21,6,21,0.00
2012-10-4,68.4,59.5,53.0,54.7,51.2,48.5,88,75,59,30.08,29.94,22,7,22,0.00
2012-10-5,72.3,65.9,55.9,57.5,55.8,52.4,89,71,57,30.10,30.02,14,5,14,0.00
2012-10-6,77.2,59.1,46.4,55.4,49.7,45.3,98,75,40,30.02,29.91,12,3,12,0.00
2012-10-7,76.1,56.9,45.1,56.2,50.8,-32.4,97,82,48,29.96,29.88,18,4,18,0.00
2012-10-8,70.9,54.7,46.9,56.0,49.7,45.9,98,85,58,29.99,29.94,14,3,14,0.00
2012-10-9,76.8,61.1,48.4,56.4,51.1,47.3,96,74,43,29.98,29.90,9,3,9,0.00
2012-10-10,74.8,59.8,49.6,56.3,52.9,-36.8,96,80,47,29.92,29.82,30,9,30,0.01
2012-10-11,58.5,55.9,54.1,52.8,51.7,50.5,89,86,78,29.92,29.82,20,5,20,0.00
2012-10-12,62.4,56.4,47.1,51.8,49.9,45.2,93,79,66,30.18,29.89,9,2,9,0.00
2012-10-13,80.4,59.1,44.1,55.9,51.2,42.7,98,78,38,30.26,30.12,11,2,11,0.00
2012-10-14,82.9,60.9,53.6,60.0,55.4,51.6,96,84,45,30.17,30.02,12,2,12,0.00
2012-10-15,82.6,68.8,48.7,60.0,56.2,47.8,97,69,44,30.05,29.95,10,3,10,0.00
2012-10-16,87.3,69.1,56.8,64.9,59.3,53.3,97,74,46,29.94,29.82,8,3,8,0.00
2012-10-17,97.0,68.2,48.9,53.6,42.0,25.1,97,54,10,29.87,29.76,7,2,7,0.00
2012-10-18,92.8,71.4,51.1,63.7,49.3,31.6,89,50,19,29.97,29.83,17,5,17,0.00
2012-10-19,68.0,64.7,62.1,62.5,61.2,60.4,95,88,78,30.01,29.95,14,5,14,0.00
2012-10-20,75.4,60.8,52.9,59.0,53.2,48.1,96,78,43,29.87,29.74,12,5,12,0.00
2012-10-21,71.1,57.6,50.0,51.1,46.1,38.9,89,68,31,29.88,29.78,16,6,16,0.01
2012-10-22,66.6,56.7,51.6,54.6,49.9,46.2,95,79,56,29.78,29.55,18,5,18,1.36
2012-10-23,69.6,58.9,48.0,54.1,48.6,42.8,98,72,42,29.90,29.79,12,3,12,0.27
2012-10-24,66.9,59.1,46.8,54.3,50.4,45.4,96,74,55,30.00,29.87,11,5,11,0.07
2012-10-25,73.6,56.6,46.0,53.0,49.8,44.3,96,81,41,30.12,30.05,8,2,8,0.04
2012-10-26,82.4,57.9,42.1,52.5,44.1,29.4,98,69,17,30.09,29.94,6,2,6,0.00
2012-10-27,88.7,64.0,49.3,59.3,53.5,47.8,98,74,32,29.94,29.79,5,2,5,0.00
2012-10-28,89.2,65.2,52.3,62.0,55.6,51.0,98,75,32,29.87,29.79,8,2,8,0.00
2012-10-29,82.6,58.5,45.9,59.9,52.1,45.1,99,82,40,29.96,29.86,6,2,6,0.00
2012-10-30,77.4,58.5,44.8,59.1,53.3,44.0,99,85,51,29.93,29.81,11,3,11,0.00
2012-10-31,64.0,59.8,56.8,57.3,55.6,54.1,97,86,71,29.86,29.81,11,3,11,0.13
2012-11-1,74.5,59.1,45.9,60.7,54.4,-34.2,99,86,60,29.92,29.84,11,2,11,0.17
2012-11-2,72.7,54.8,42.8,56.8,48.5,42.3,99,82,49,29.94,29.87,5,2,5,0.00
2012-11-3,82.2,60.4,45.3,57.1,51.1,44.2,98,76,34,30.00,29.92,8,2,8,0.00
2012-11-4,87.3,64.5,48.6,60.3,54.2,47.5,98,75,32,30.05,29.98,8,3,8,0.00
2012-11-5,88.7,67.4,55.4,57.9,55.1,52.1,92,69,32,30.00,29.89,9,5,9,0.00
2012-11-6,89.4,65.7,53.6,61.0,55.6,51.6,94,74,35,29.93,29.84,9,4,9,0.00
2012-11-7,62.6,55.2,50.9,55.6,51.7,49.5,98,88,78,29.90,29.76,23,6,23,0.01
2012-11-8,62.6,52.1,39.7,50.6,43.9,37.6,94,74,52,29.81,29.73,17,4,17,0.06
2012-11-9,61.3,47.4,37.0,48.5,39.7,35.6,98,77,43,29.84,29.74,11,2,11,0.06
2012-11-10,64.0,46.4,35.4,46.2,38.2,34.4,98,77,34,30.09,29.83,11,2,11,0.00
2012-11-11,63.9,52.8,33.4,45.2,39.0,32.4,98,64,42,30.23,30.10,9,4,9,0.00
2012-11-12,69.1,49.6,38.5,43.1,38.2,34.6,95,70,28,30.23,30.11,8,3,8,0.00
2012-11-13,76.1,64.2,36.9,44.4,39.7,34.5,93,45,26,30.13,29.95,9,4,9,0.00
2012-11-14,73.4,59.7,47.3,50.4,46.0,41.5,86,63,35,29.98,29.86,17,5,17,0.00
2012-11-15,72.5,56.3,42.8,50.9,46.4,40.1,93,72,41,29.88,29.79,6,3,6,0.00
2012-11-16,66.0,54.5,44.4,55.4,51.7,42.8,98,91,64,29.85,29.71,10,2,10,0.31
2012-11-17,61.3,57.7,52.5,58.1,55.7,51.1,98,93,82,29.85,29.64,19,4,19,0.87
2012-11-18,65.1,54.3,45.3,53.7,48.7,43.9,99,83,53,30.02,29.85,10,2,10,0.01
2012-11-19,71.6,57.2,50.0,50.2,48.8,46.0,94,76,43,30.08,30.00,11,3,11,0.00
2012-11-20,66.9,60.2,57.4,57.6,56.1,49.3,95,87,69,30.01,29.86,17,6,17,0.64
2012-11-21,70.0,56.5,41.9,59.5,52.6,40.9,98,88,53,30.06,29.87,7,2,7,0.59
2012-11-22,72.1,49.4,37.9,50.7,44.1,37.4,99,85,40,30.12,30.03,5,2,5,0.01
2012-11-23,74.1,53.2,39.9,52.2,46.3,39.4,99,81,42,30.12,30.01,14,3,14,0.00
2012-11-24,77.9,60.1,39.7,51.8,46.1,39.0,99,66,34,30.05,29.89,11,2,11,0.00
2012-11-25,74.1,51.0,38.7,57.2,45.9,37.9,99,86,42,29.88,29.78,6,2,6,0.00
2012-11-26,69.8,49.8,37.8,54.8,45.6,37.2,99,87,57,29.92,29.82,6,1,6,0.00
2012-11-27,66.6,53.0,42.3,54.1,48.7,41.7,99,86,58,29.95,29.84,7,2,7,0.00
2012-11-28,64.9,56.3,49.5,57.4,52.0,47.6,96,86,71,29.89,29.66,99,4,99,0.51
2012-11-29,63.5,60.9,58.5,59.5,52.9,48.8,91,75,59,29.88,29.69,26,10,26,0.22
2012-11-30,61.5,59.7,57.7,59.3,57.8,55.6,96,93,89,29.74,29.62,28,8,28,1.93
2012-12-1,63.5,59.7,57.2,59.7,57.4,52.8,97,92,86,29.88,29.72,26,5,26,1.39
2012-12-2,63.1,54.8,44.6,59.3,52.8,28.9,97,93,85,29.91,29.62,22,6,22,1.18
2012-12-5,64.4,59.5,55.6,61.9,57.8,53.9,98,94,90,29.68,29.61,16,4,16,3.20
2012-12-6,55.8,55.7,55.6,54.4,54.2,54.2,95,95,95,29.65,29.65,2,2,3,0.00
2012-12-7,68.9,49.4,39.2,54.0,44.9,38.4,99,87,43,29.67,29.58,5,2,5,0.00
2012-12-8,68.0,48.7,38.5,51.1,43.4,37.7,99,85,44,29.64,29.55,8,3,8,0.01
2012-12-9,73.6,52.8,39.9,51.1,44.6,38.9,98,78,35,29.71,29.61,7,3,7,0.00
2012-12-10,75.7,57.9,46.2,50.4,45.1,42.0,93,65,38,29.76,29.63,9,4,9,0.00
2012-12-11,63.1,51.3,36.9,52.0,46.8,35.8,99,85,67,29.62,29.41,11,4,11,0.00
2012-12-12,57.2,47.1,34.3,49.2,41.7,33.6,97,83,57,29.42,29.34,7,2,7,0.10
2012-12-13,61.5,41.5,33.8,46.0,36.5,32.3,99,85,46,29.45,29.37,6,2,6,0.00
2012-12-14,55.8,41.9,33.4,45.6,38.6,32.7,99,89,58,29.55,29.33,5,1,5,0.00
2012-12-15,48.7,41.8,33.4,44.4,40.3,32.7,99,95,81,29.60,29.51,7,2,7,0.16
2012-12-16,59.4,52.6,43.7,53.2,50.1,42.2,98,91,67,29.62,29.53,14,4,14,0.10
2012-12-17,54.3,54.0,53.4,53.0,52.6,51.3,96,95,93,29.53,29.50,17,6,17,0.31
2012-12-18,55.4,42.7,31.3,43.3,33.3,28.9,99,73,37,29.72,29.51,14,4,14,0.01
2012-12-19,61.9,39.7,27.7,39.4,31.3,25.2,98,76,26,29.83,29.72,6,2,6,0.00
2012-12-20,59.4,45.2,28.9,40.1,35.0,26.9,96,70,45,29.74,29.50,21,6,21,0.00
2012-12-21,54.3,52.7,50.5,51.3,47.1,39.6,93,82,63,29.49,29.37,24,10,24,0.55
2012-12-22,61.0,51.7,46.9,50.3,47.5,44.6,97,86,62,29.53,29.34,22,4,22,1.24
2012-12-23,55.6,49.7,45.0,53.1,47.8,43.3,98,93,85,29.58,29.36,21,5,21,1.35
2012-12-24,62.1,46.9,35.6,52.0,41.0,35.1,99,83,47,29.73,29.53,12,2,12,0.02
2012-12-25,47.8,42.8,39.4,45.9,41.2,38.3,98,94,86,29.68,29.27,12,3,12,0.65
2012-12-30,59.5,39.6,32.2,47.0,36.3,31.1,99,89,49,29.70,29.56,6,2,6,0.01
2012-12-31,61.9,42.2,29.5,39.1,33.9,28.0,99,77,29,29.81,29.70,6,2,6,0.00
2013-1-1,60.1,43.9,35.2,37.6,34.3,30.0,96,72,36,29.79,29.72,11,4,11,0.00